Hourly Data Report for April 18, 2017

KUGAARUK CLIMATE
NUNAVUT

68°32'15.060" N
89°47'47.020" W
15.80 m
2303094
71407
NBB

Download Data

Hourly Data (April 2017)
Hourly Data Report for April 18, 2017
TIME
LST
Temp Definition
°C
Dew Point Definition
°C
Rel Hum Definition
%
Precip. Amount Definition
mm

Wind Dir Definition
10's deg

Wind Spd Definition
km/h
Visibility Definition
km
Stn Press Definition
kPa
Hmdx Definition


Wind Chill Definition


Weather Definition


00:00 -25.9 -28.9 76 0.0 24 19   100.90   -38 LegendNANA
01:00 -27.2 -30.2 75 0.0 24 16   100.89   -38 LegendNANA
02:00 -28.0 -31.1 75 0.0 26 16   100.87   -39 LegendNANA
03:00 -27.9 -31.0 75 0.0 26 13   100.85   -38 LegendNANA
04:00 -28.0 -31.2 74 0.0 26 19   100.83   -40 LegendNANA
05:00 -27.8 -31.4 72 0.0 26 16   100.84   -39 LegendNANA
06:00 -27.6 -31.6 68 0.0 26 19   100.81   -40 LegendNANA
07:00 -26.6 -30.9 67 0.0 27 20   100.80   -39 LegendNANA
08:00 -26.1 -30.6 66 0.0 25 19   100.79   -38 LegendNANA
09:00 -25.6 -30.3 65 0.0 25 20   100.78   -38 LegendNANA
10:00 -25.3 -30.2 64 0.0 25 21   100.77   -37 LegendNANA
11:00 -24.7 -29.6 64 0.0 25 18   100.79   -36 LegendNANA
12:00 -24.4 -29.4 63 0.0 25 18   100.81   -35 LegendNANA
13:00 -23.7 -29.0 62 0.0 24 15   100.83   -34 LegendNANA
14:00 -23.4 -28.5 63 0.0 24 15   100.85   -33 LegendNANA
15:00 -23.1 -28.4 62 0.0 25 12   100.87   -32 LegendNANA
16:00 -22.8 -28.0 63 0.0 25 11   100.91   -31 LegendNANA
17:00 -23.3 -28.2 64 0.0 26 9   100.92   -31 LegendNANA
18:00 -24.8 -29.3 66 0.0 25 6   100.96   -31 LegendNANA
19:00 -24.7 -27.9 75 0.0 25 5   100.97   -30 LegendNANA
20:00 -25.7 -28.9 74 0.0   0   100.99     LegendNANA
21:00 -25.4 -28.6 75 0.0 0 1   101.01   -26 LegendNANA
22:00 -24.9 -27.9 76 0.0 25 5   101.03   -30 LegendNANA
23:00 -24.2 -27.2 76 0.0 25 4   101.04   -28 LegendNANA

Notes on Data Quality.

Legend

  • E = Estimated
  • M = Missing
  • NA = Not Available*
  • [empty] = Indicates an unobserved value
Date modified: